weather.gov     
National Weather Service

Terminal Aerodrome Forecast
NWS Homepage
This page is being discontinued on March 12, 2014.
The same data is available at this site. Please update your bookmarks.
Thank you, and we apologize for the inconvenience.
Please send an email to SR-SRH.Webmaster@noaa.gov with any concerns.


Current Version
Previous Version:    01  02  03  04  05  06  07  08  09  10  11  12  13  14  
[Printable]
131
FTUS41 KBTV 260526
TAFMPV
TAF
KMPV 260526Z 2606/2706 33003KT P6SM SCT250
     FM261700 06004KT P6SM BKN150 OVC250
     FM270000 VRB03KT P6SM BKN080 OVC120=




131
FTUS41 KBTV 260526
TAFMPV
TAF
KMPV 260526Z 2606/2706 33003KT P6SM SCT250
     FM261700 06004KT P6SM BKN150 OVC250
     FM270000 VRB03KT P6SM BKN080 OVC120=


U.S. Dept. of Commerce
NOAA National Weather Service
1325 East West Highway
Silver Spring, MD 20910
E-mail: w-nws.webmaster@noaa.gov
Page last modified: May 16, 2007
NATIONAL WEATHER SERVICE: for Safety, for Work, for Fun - FOR LIFE